Weather History for Fryeburg, ME

Change the Weather History Date:

Thursday, May 10, 2012

  Actual Average Record
Temperature  
Mean Temperature 57 °F -  
Max Temperature 63 °F 64 °F 88 °F (2007)
Min Temperature 48 °F 36 °F 30 °F (2003)
Degree Days  
Heating Degree Days 8    
Growing Degree Days 7 (Base 50)    
Moisture  
Dew Point 50 °F    
Average Humidity 86    
Maximum Humidity 100    
Minimum Humidity 52    
Precipitation  
Precipitation 0.70 in - - ()
Sea Level Pressure  
Sea Level Pressure 29.47 in    
Wind  
Wind Speed 2 mph (NW)    
Max Wind Speed 14 mph    
Max Gust Speed 24 mph    
Visibility 7 miles    
Events Fog , Rain    
Averages and records for this station are not official NWS values.
T = Trace of Precipitation, MM = Missing Value Source: NWS Daily Summary

Daily Weather History Graph

Daily Weather History Graph

Search for Another Location

Airport:

Trip Planner

Search our weather history database for the weather conditions in past years. The results will help you decide how hot, cold, wet, or windy it might be!

Date:

Astronomy

May. 10, 2012 Rise Set
Actual Time 5:22 AM EDT 7:58 PM EDT
Civil Twilight 4:50 AM EDT 8:31 PM EDT
Nautical Twilight 4:09 AM EDT 9:12 PM EDT
Astronomical Twilight 3:22 AM EDT 9:59 PM EDT
Moon No Moon Rise 9:43 AM EDT (5/10)
Length of Visible Light 15h 40m
Length of Day
14h 35m
Waning Gibbous, 73% of the Moon is Illuminated
May 10
Waning Gibbous
May 12
Last Quarter
May 20
New
May 28
First Quarter
Jun 4
Full

Hourly Weather History & Observations

Time (EDT) Temp. Dew Point Humidity Pressure Visibility Wind Dir Wind Speed Gust Speed Precip Events Conditions
12:54 AM 55.9 °F 55.9 °F 100% 29.58 in 0.5 mi Calm Calm - 0.01 in Fog Fog
1:54 AM 55.9 °F 55.0 °F 97% 29.55 in 0.5 mi Calm Calm - 0.00 in Fog , Rain Light Rain
2:15 AM 55.4 °F 55.4 °F 100% 29.53 in 1.2 mi NW 3.5 mph - 0.02 in Rain Light Rain
2:23 AM 55.4 °F 55.4 °F 100% 29.53 in 1.5 mi North 3.5 mph - 0.02 in Rain Light Rain
2:32 AM 55.4 °F 55.4 °F 100% 29.52 in 2.5 mi North 4.6 mph - 0.03 in Rain Light Rain
2:39 AM 55.4 °F 55.4 °F 100% 29.52 in 4.0 mi NNW 3.5 mph - 0.03 in Rain Light Rain
2:54 AM 55.9 °F 55.9 °F 100% 29.52 in 5.0 mi Calm Calm - 0.04 in Rain Light Rain
3:12 AM 55.4 °F 55.4 °F 100% 29.51 in 6.0 mi Calm Calm - 0.01 in Rain Light Rain
3:37 AM 55.4 °F 55.4 °F 100% 29.50 in 6.0 mi Calm Calm - 0.04 in Rain Light Rain
3:54 AM 55.0 °F 55.0 °F 100% 29.50 in 6.0 mi Calm Calm - 0.05 in Rain Light Rain
4:18 AM 55.4 °F 55.4 °F 100% 29.49 in 5.0 mi Calm Calm - 0.03 in Rain Light Rain
4:26 AM 55.4 °F 55.4 °F 100% 29.49 in 5.0 mi Calm Calm - 0.05 in Rain Light Rain
4:54 AM 54.0 °F 54.0 °F 100% 29.48 in 5.0 mi NNW 4.6 mph - 0.10 in Rain Light Rain
5:14 AM 53.6 °F 53.6 °F 100% 29.48 in 4.0 mi Calm Calm - 0.06 in Rain Rain
5:49 AM 53.6 °F 51.8 °F 94% 29.47 in 7.0 mi Calm Calm - 0.16 in Rain Light Rain
5:54 AM 53.1 °F 51.1 °F 93% 29.48 in 6.0 mi Calm Calm - 0.17 in Rain Light Rain
6:04 AM 51.8 °F 50.0 °F 94% 29.47 in 4.0 mi North 5.8 mph - 0.04 in Rain Rain
6:32 AM 51.8 °F 50.0 °F 94% 29.47 in 3.0 mi North 3.5 mph - 0.10 in Rain Rain
6:54 AM 51.1 °F 50.0 °F 96% 29.47 in 4.0 mi Calm Calm - 0.14 in Rain Light Rain
7:54 AM 51.1 °F 50.0 °F 96% 29.44 in 5.0 mi NNW 3.5 mph - 0.08 in Rain Light Rain
8:54 AM 52.0 °F 51.1 °F 97% 29.44 in 7.0 mi Calm Calm - 0.05 in Rain Light Rain
9:54 AM 53.1 °F 52.0 °F 96% 29.40 in 10.0 mi Calm Calm - 0.04 in Rain Light Rain
10:54 AM 54.0 °F 50.0 °F 86% 29.39 in 10.0 mi NW 3.5 mph - 0.02 in Rain Light Rain
11:54 AM 57.9 °F 51.1 °F 78% 29.36 in 10.0 mi Variable 3.5 mph - 0.00 in   Partly Cloudy
12:11 PM 57.2 °F 51.8 °F 82% 29.36 in 10.0 mi West 3.5 mph - N/A   Mostly Cloudy
12:41 PM 57.2 °F 51.8 °F 82% 29.36 in 10.0 mi Calm Calm - N/A   Overcast
12:54 PM 57.9 °F 50.0 °F 75% 29.36 in 10.0 mi Calm Calm - N/A   Overcast
1:13 PM 57.2 °F 51.8 °F 82% 29.36 in 10.0 mi Calm Calm - N/A   Overcast
1:54 PM 59.0 °F 46.9 °F 64% 29.37 in 10.0 mi Variable 6.9 mph - N/A   Overcast
2:54 PM 57.9 °F 46.0 °F 65% 29.40 in 10.0 mi WNW 9.2 mph - N/A   Overcast
3:54 PM 63.0 °F 45.0 °F 52% 29.41 in 10.0 mi WNW 13.8 mph 20.7 mph N/A   Mostly Cloudy
4:54 PM 57.9 °F 44.1 °F 60% 29.44 in 10.0 mi WNW 10.4 mph 24.2 mph N/A   Mostly Cloudy
5:54 PM 55.9 °F 42.1 °F 60% 29.48 in 10.0 mi WNW 12.7 mph 20.7 mph N/A   Mostly Cloudy
6:54 PM 54.0 °F 41.0 °F 62% 29.51 in 10.0 mi WNW 10.4 mph - N/A   Overcast
7:54 PM 53.1 °F 39.0 °F 59% 29.53 in 10.0 mi Variable 5.8 mph 18.4 mph N/A   Overcast
8:54 PM 52.0 °F 37.9 °F 59% 29.55 in 10.0 mi West 8.1 mph - N/A   Overcast
9:54 PM 51.1 °F 39.0 °F 63% 29.56 in 10.0 mi WSW 8.1 mph - N/A   Partly Cloudy
10:54 PM 48.9 °F 39.0 °F 69% 29.58 in 10.0 mi WSW 5.8 mph - N/A   Mostly Cloudy